AAL5515 KCLT-KORF

Flight info

Callsign AAL5515
Flight time 0h 51m
Altitude 31000
Route BARMY5 NUTZE KOHLS1
Aircraft CRJ9/M-VGDW/C

Departure

Time 2026-04-23 13:38
Airport Charlotte Douglas International Airport (KCLT)

Arrival

Time 2026-04-23 14:30
Airport Norfolk International Airport (KORF)
Time Latitude Longitude Altitude Speed Heading
2026-04-23 12:59 35.22204 -80.94794 741 ft 0 kts 24°
2026-04-23 13:31 35.22200 -80.94796 741 ft 2 kts 20°
2026-04-23 13:31 35.22184 -80.94799 738 ft 2 kts 358°
2026-04-23 13:31 35.22169 -80.94791 739 ft 2 kts 310°
2026-04-23 13:31 35.22164 -80.94774 737 ft 1 kts 276°
2026-04-23 13:32 35.22164 -80.94771 737 ft 0 kts 271°
2026-04-23 13:32 35.22164 -80.94772 736 ft 0 kts 271°
2026-04-23 13:32 35.22164 -80.94774 737 ft 1 kts 272°
2026-04-23 13:33 35.22164 -80.94783 738 ft 2 kts 263°
2026-04-23 13:33 35.22160 -80.94806 739 ft 5 kts 258°
2026-04-23 13:33 35.22147 -80.94859 738 ft 8 kts 244°
2026-04-23 13:33 35.22124 -80.94939 739 ft 12 kts 263°
2026-04-23 13:34 35.22104 -80.95044 737 ft 14 kts 221°
2026-04-23 13:34 35.22001 -80.95053 737 ft 17 kts 176°
2026-04-23 13:34 35.21871 -80.95042 734 ft 21 kts 175°
2026-04-23 13:34 35.21718 -80.95028 731 ft 24 kts 175°
2026-04-23 13:35 35.21541 -80.95013 729 ft 27 kts 176°
2026-04-23 13:35 35.21349 -80.94995 725 ft 29 kts 175°
2026-04-23 13:35 35.21142 -80.94977 722 ft 30 kts 176°
2026-04-23 13:35 35.20924 -80.94960 716 ft 32 kts 176°
2026-04-23 13:36 35.20708 -80.94942 718 ft 31 kts 176°
2026-04-23 13:36 35.20494 -80.94922 713 ft 31 kts 175°
2026-04-23 13:36 35.20278 -80.94904 705 ft 31 kts 176°
2026-04-23 13:36 35.20092 -80.94885 699 ft 20 kts 175°
2026-04-23 13:37 35.20019 -80.94984 695 ft 19 kts 265°
2026-04-23 13:37 35.20051 -80.95082 698 ft 9 kts 342°
2026-04-23 13:37 35.20055 -80.95084 700 ft 5 kts 345°
2026-04-23 13:37 35.20371 -80.95115 708 ft 89 kts 356°
2026-04-23 13:38 35.21241 -80.95191 730 ft 156 kts 356°
2026-04-23 13:38 35.22436 -80.95292 1158 ft 184 kts 356°
2026-04-23 13:38 35.23702 -80.95393 2173 ft 185 kts 355°
2026-04-23 13:38 35.24994 -80.95594 3047 ft 192 kts 351°
2026-04-23 13:39 35.26384 -80.95848 3688 ft 211 kts 359°
2026-04-23 13:39 35.27772 -80.95222 4447 ft 225 kts 42°
2026-04-23 13:39 35.28496 -80.93498 5334 ft 238 kts 82°
2026-04-23 13:39 35.28278 -80.91473 6272 ft 245 kts 104°
2026-04-23 13:40 35.27781 -80.89400 7012 ft 263 kts 107°
2026-04-23 13:40 35.27200 -80.87204 7728 ft 278 kts 108°
2026-04-23 13:40 35.26576 -80.84920 8632 ft 286 kts 109°
2026-04-23 13:40 35.25935 -80.82589 9630 ft 291 kts 109°
2026-04-23 13:41 35.25288 -80.80216 10568 ft 297 kts 109°
2026-04-23 13:41 35.24643 -80.77792 11438 ft 303 kts 107°
2026-04-23 13:41 35.24159 -80.75195 12009 ft 322 kts 99°
2026-04-23 13:41 35.23950 -80.72405 12675 ft 335 kts 92°
2026-04-23 13:42 35.23956 -80.69528 13578 ft 341 kts 88°
2026-04-23 13:42 35.24079 -80.66644 14449 ft 346 kts 85°
2026-04-23 13:42 35.24265 -80.63699 15380 ft 348 kts 85°
2026-04-23 13:42 35.24456 -80.60735 16327 ft 350 kts 84°
2026-04-23 13:43 35.24645 -80.57757 17261 ft 352 kts 85°
2026-04-23 13:43 35.24808 -80.54754 18203 ft 354 kts 86°
2026-04-23 13:43 35.24939 -80.51731 19021 ft 358 kts 86°
2026-04-23 13:43 35.25090 -80.48674 19746 ft 363 kts 85°
2026-04-23 13:44 35.25281 -80.45578 20466 ft 367 kts 83°
2026-04-23 13:44 35.25609 -80.42463 21175 ft 372 kts 80°
2026-04-23 13:44 35.26054 -80.39329 21874 ft 376 kts 79°
2026-04-23 13:44 35.26529 -80.36160 22562 ft 381 kts 79°
2026-04-23 13:45 35.27002 -80.32941 23234 ft 386 kts 79°
2026-04-23 13:45 35.27453 -80.29721 23876 ft 391 kts 80°
2026-04-23 13:45 35.27891 -80.26417 24455 ft 395 kts 80°
2026-04-23 13:45 35.28317 -80.23073 25028 ft 398 kts 80°
2026-04-23 13:46 35.28743 -80.19701 25585 ft 402 kts 80°
2026-04-23 13:46 35.29185 -80.16297 26128 ft 406 kts 79°
2026-04-23 13:46 35.29632 -80.12868 26656 ft 409 kts 79°
2026-04-23 13:46 35.30099 -80.09465 27168 ft 412 kts 76°
2026-04-23 13:47 35.30882 -80.06092 27659 ft 413 kts 69°
2026-04-23 13:47 35.31877 -80.02784 28162 ft 416 kts 66°
2026-04-23 13:47 35.32940 -79.99476 28655 ft 419 kts 66°
2026-04-23 13:47 35.34007 -79.96139 29167 ft 421 kts 66°
2026-04-23 13:48 35.35040 -79.92789 29779 ft 420 kts 67°
2026-04-23 13:48 35.36028 -79.89426 30359 ft 419 kts 68°
2026-04-23 13:48 35.36992 -79.86054 30787 ft 421 kts 68°
2026-04-23 13:48 35.37959 -79.82645 30986 ft 428 kts 68°
2026-04-23 13:49 35.38965 -79.79177 31067 ft 433 kts 68°
2026-04-23 13:49 35.41010 -79.72234 31130 ft 436 kts 67°
2026-04-23 13:50 35.43048 -79.65168 31138 ft 443 kts 68°
2026-04-23 13:50 35.45128 -79.57987 31145 ft 450 kts 68°
2026-04-23 13:51 35.47217 -79.50696 31154 ft 454 kts 68°
2026-04-23 13:51 35.49304 -79.43448 31150 ft 447 kts 68°
2026-04-23 13:52 35.51366 -79.36302 31142 ft 442 kts 68°
2026-04-23 13:52 35.53379 -79.29210 31138 ft 438 kts 68°
2026-04-23 13:53 35.55378 -79.22242 31134 ft 433 kts 67°
2026-04-23 13:53 35.57347 -79.15277 31134 ft 429 kts 68°
2026-04-23 13:54 35.59286 -79.08366 31132 ft 426 kts 70°
2026-04-23 13:54 35.60678 -79.01288 31136 ft 425 kts 75°
2026-04-23 13:55 35.61902 -78.94210 31134 ft 422 kts 74°
2026-04-23 13:55 35.63174 -78.87193 31134 ft 419 kts 74°
2026-04-23 13:56 35.64447 -78.80233 31129 ft 416 kts 73°
2026-04-23 13:56 35.65713 -78.73301 31128 ft 414 kts 73°
2026-04-23 13:57 35.66966 -78.66416 31129 ft 412 kts 73°
2026-04-23 13:57 35.68201 -78.59611 31124 ft 410 kts 73°
2026-04-23 13:58 35.69441 -78.52776 31126 ft 410 kts 73°
2026-04-23 13:58 35.70690 -78.45897 31129 ft 414 kts 73°
2026-04-23 13:59 35.71955 -78.38950 31125 ft 418 kts 73°
2026-04-23 13:59 35.73233 -78.31954 31128 ft 421 kts 73°
2026-04-23 14:00 35.74304 -78.26092 31127 ft 423 kts 73°
2026-04-23 14:00 35.75774 -78.17772 31115 ft 427 kts 74°
2026-04-23 14:01 35.77058 -78.10603 31114 ft 430 kts 74°
2026-04-23 14:01 35.78323 -78.03379 31107 ft 432 kts 73°
2026-04-23 14:02 35.79592 -77.96163 31104 ft 434 kts 73°
2026-04-23 14:02 35.80877 -77.88861 31106 ft 437 kts 73°
2026-04-23 14:03 35.82152 -77.81526 31101 ft 439 kts 74°
2026-04-23 14:03 35.83420 -77.74156 31098 ft 440 kts 75°
2026-04-23 14:03 35.84243 -77.70548 31104 ft 434 kts 63°
2026-04-23 14:04 35.85571 -77.67232 31106 ft 430 kts 57°
2026-04-23 14:04 35.88853 -77.61101 31105 ft 427 kts 47°
2026-04-23 14:05 35.92635 -77.55465 31104 ft 427 kts 46°
2026-04-23 14:05 35.96427 -77.49887 29624 ft 431 kts 47°
2026-04-23 14:05 35.98308 -77.47007 28532 ft 428 kts 47°
2026-04-23 14:06 36.00136 -77.44143 27607 ft 420 kts 48°
2026-04-23 14:06 36.01927 -77.41332 26795 ft 413 kts 48°
2026-04-23 14:06 36.03700 -77.38567 26038 ft 408 kts 48°
2026-04-23 14:06 36.05455 -77.35839 25311 ft 403 kts 48°
2026-04-23 14:07 36.07178 -77.33130 24608 ft 399 kts 49°
2026-04-23 14:07 36.10576 -77.27787 23202 ft 391 kts 49°
2026-04-23 14:07 36.12248 -77.25163 22482 ft 387 kts 49°
2026-04-23 14:08 36.13910 -77.22559 21786 ft 383 kts 49°
2026-04-23 14:08 36.15533 -77.20024 21132 ft 379 kts 49°
2026-04-23 14:08 36.17165 -77.17481 20500 ft 376 kts 49°
2026-04-23 14:08 36.18786 -77.14961 19884 ft 373 kts 49°
2026-04-23 14:09 36.20398 -77.12462 19285 ft 370 kts 49°
2026-04-23 14:09 36.22001 -77.09980 18718 ft 367 kts 49°
2026-04-23 14:09 36.23596 -77.07515 18135 ft 365 kts 49°
2026-04-23 14:09 36.25167 -77.05053 17513 ft 362 kts 49°
2026-04-23 14:10 36.26713 -77.02607 16924 ft 359 kts 49°
2026-04-23 14:10 36.28249 -77.00170 16399 ft 357 kts 49°
2026-04-23 14:10 36.29265 -76.98571 16080 ft 356 kts 49°
2026-04-23 14:10 36.31298 -76.95404 15409 ft 353 kts 49°
2026-04-23 14:11 36.32816 -76.93017 14933 ft 351 kts 49°
2026-04-23 14:11 36.34319 -76.90639 14558 ft 349 kts 49°
2026-04-23 14:11 36.35817 -76.88273 14155 ft 348 kts 49°
2026-04-23 14:11 36.37316 -76.85909 13745 ft 347 kts 49°
2026-04-23 14:12 36.38800 -76.83566 13328 ft 344 kts 49°
2026-04-23 14:12 36.39784 -76.82018 13061 ft 342 kts 49°
2026-04-23 14:12 36.41254 -76.79710 12665 ft 340 kts 49°
2026-04-23 14:12 36.42719 -76.77415 12245 ft 337 kts 49°
2026-04-23 14:13 36.44158 -76.75134 11618 ft 333 kts 49°
2026-04-23 14:13 36.45564 -76.72907 11295 ft 321 kts 49°
2026-04-23 14:13 36.46913 -76.70774 11126 ft 304 kts 48°
2026-04-23 14:13 36.48179 -76.68764 11063 ft 287 kts 48°
2026-04-23 14:14 36.49367 -76.66868 11026 ft 269 kts 48°
2026-04-23 14:14 36.50479 -76.65090 11007 ft 252 kts 48°
2026-04-23 14:14 36.51524 -76.63430 10985 ft 238 kts 47°
2026-04-23 14:14 36.52550 -76.61804 10878 ft 239 kts 47°
2026-04-23 14:15 36.53570 -76.60188 10618 ft 235 kts 47°
2026-04-23 14:15 36.54563 -76.58604 10360 ft 229 kts 47°
2026-04-23 14:15 36.55530 -76.57059 10071 ft 224 kts 47°
2026-04-23 14:15 36.56461 -76.55568 9792 ft 219 kts 47°
2026-04-23 14:16 36.57386 -76.54080 9525 ft 215 kts 47°
2026-04-23 14:16 36.58294 -76.52622 9192 ft 211 kts 47°
2026-04-23 14:16 36.59188 -76.51189 8877 ft 208 kts 47°
2026-04-23 14:16 36.60066 -76.49787 8586 ft 203 kts 47°
2026-04-23 14:17 36.60930 -76.48413 8318 ft 200 kts 47°
2026-04-23 14:17 36.61787 -76.47053 8056 ft 199 kts 47°
2026-04-23 14:17 36.62643 -76.45704 7793 ft 198 kts 47°
2026-04-23 14:17 36.63493 -76.44368 7544 ft 196 kts 47°
2026-04-23 14:18 36.64341 -76.43043 7296 ft 194 kts 47°
2026-04-23 14:18 36.65180 -76.41734 7051 ft 193 kts 48°
2026-04-23 14:18 36.66008 -76.40429 6803 ft 192 kts 48°
2026-04-23 14:18 36.66829 -76.39130 6563 ft 190 kts 49°
2026-04-23 14:19 36.67635 -76.37839 6330 ft 188 kts 49°
2026-04-23 14:19 36.68434 -76.36552 6085 ft 188 kts 49°
2026-04-23 14:19 36.69235 -76.35263 5906 ft 188 kts 49°
2026-04-23 14:19 36.70032 -76.33966 5732 ft 189 kts 49°
2026-04-23 14:20 36.70806 -76.32668 5522 ft 189 kts 51°
2026-04-23 14:20 36.71597 -76.31363 5289 ft 188 kts 49°
2026-04-23 14:20 36.72399 -76.30091 5167 ft 186 kts 49°
2026-04-23 14:20 36.73199 -76.28834 5105 ft 184 kts 49°
2026-04-23 14:21 36.73980 -76.27596 5069 ft 180 kts 49°
2026-04-23 14:21 36.74743 -76.26380 5032 ft 175 kts 48°
2026-04-23 14:21 36.75551 -76.25280 5017 ft 170 kts 41°
2026-04-23 14:21 36.76400 -76.24283 4999 ft 165 kts 39°
2026-04-23 14:22 36.77265 -76.23312 5009 ft 170 kts 38°
2026-04-23 14:22 36.78164 -76.22314 5037 ft 175 kts 38°
2026-04-23 14:22 36.79080 -76.21306 5051 ft 181 kts 38°
2026-04-23 14:22 36.80041 -76.20241 5038 ft 188 kts 38°
2026-04-23 14:23 36.81032 -76.19134 5084 ft 193 kts 39°
2026-04-23 14:23 36.82044 -76.18005 5127 ft 197 kts 39°
2026-04-23 14:23 36.83049 -76.16846 4902 ft 194 kts 40°
2026-04-23 14:23 36.84011 -76.15710 4595 ft 186 kts 41°
2026-04-23 14:24 36.84942 -76.14631 4271 ft 180 kts 39°
2026-04-23 14:24 36.85857 -76.13599 3953 ft 175 kts 39°
2026-04-23 14:24 36.86756 -76.12600 3678 ft 170 kts 39°
2026-04-23 14:24 36.87639 -76.11623 3379 ft 171 kts 39°
2026-04-23 14:25 36.88534 -76.10644 3135 ft 171 kts 39°
2026-04-23 14:25 36.89429 -76.09670 2877 ft 170 kts 39°
2026-04-23 14:25 36.90319 -76.08689 2635 ft 171 kts 40°
2026-04-23 14:25 36.91222 -76.07725 2505 ft 170 kts 33°
2026-04-23 14:26 36.92265 -76.07054 2289 ft 168 kts 14°
2026-04-23 14:26 36.93390 -76.06878 2031 ft 164 kts 354°
2026-04-23 14:26 36.94485 -76.07211 1773 ft 162 kts 334°
2026-04-23 14:26 36.95413 -76.07977 1529 ft 159 kts 316°
2026-04-23 14:27 36.96048 -76.09050 1398 ft 150 kts 286°
2026-04-23 14:27 36.95931 -76.10267 1308 ft 139 kts 253°
2026-04-23 14:27 36.95706 -76.11441 1286 ft 142 kts 261°
2026-04-23 14:27 36.95526 -76.12704 1347 ft 152 kts 261°
2026-04-23 14:28 36.95350 -76.14042 1366 ft 159 kts 260°
2026-04-23 14:28 36.94814 -76.15223 1332 ft 161 kts 224°
2026-04-23 14:28 36.93955 -76.16066 1108 ft 156 kts 212°
2026-04-23 14:28 36.93016 -76.16619 838 ft 140 kts 206°
2026-04-23 14:29 36.92159 -76.17255 640 ft 152 kts 220°
2026-04-23 14:29 36.91389 -76.18112 314 ft 141 kts 219°
2026-04-23 14:29 36.90654 -76.18814 69 ft 126 kts 222°
2026-04-23 14:29 36.90039 -76.19433 27 ft 96 kts 218°
2026-04-23 14:30 36.89717 -76.19740 26 ft 22 kts 218°
2026-04-23 14:30 36.89722 -76.19857 27 ft 17 kts 328°
2026-04-23 14:30 36.89738 -76.19947 28 ft 10 kts 259°
2026-04-23 14:30 36.89752 -76.20030 29 ft 10 kts 282°
2026-04-23 14:31 36.89725 -76.20106 29 ft 8 kts 232°
2026-04-23 14:31 36.89717 -76.20119 29 ft 0 kts 229°